User: anonymous   Login
Location: Griffin Ranch
(33.6186°N, 110.6622°W)
Time: 10:09:22
(UTC-07:00)
Language:

Cosmos 1812 - Orbit

View from above orbital plane
View from above orbital plane
View from above satellite
View from above satellite

Ground track
Ground track

The orbit data is extracted from the following two-line orbital elements,

1 17295U 87003A   16042.42110363  .00002512  00000-0  13927-3 0  9990
2 17295  82.5138 268.4292 0004453  45.9234 314.2363 15.13358660584556
Epoch (UTC): 11 February 2016 10:06:23
Eccentricity: 0.0004453
inclination: 82.5138°
perigee height: 523 km
apogee height: 529 km
right ascension of ascending node: 268.4292°
argument of perigee: 45.9234°
revolutions per day: 15.13358660
mean anomaly at epoch: 314.2363°
orbit number at epoch: 58455

The dashed part of the orbit path shows where the satellite is in the earth's shadow,  

DLR